Voltar ao catálogo

TITAN 3C TRANSTAGE DEB

LostHEO
NORAD 26783·DEBRIS·🇺🇸 United States

Lançado Dec 21, 1965 de Cape Canaveral Space Force Station

Loading…

Próximas Passagens (próximas 24 horas)

TLE

ObsoletoSource: Space-Track

Época: Mar 18, 2026, 16:34 UTC

1 26783U 65108BB  26077.69055036 -.00000070  00000-0  00000-0 0  9990
2 26783  27.0621 207.1232 6594658 193.2828 349.5036  2.68257636 50975

Acompanhe TITAN 3C TRANSTAGE DEB em tempo real com AllMySat

Download on the App Store